Albion, NE

3:57 AM CST on December 11, 2017 (GMT -0600)
Albion Municipal

Weather History for KBVN - February, 2013

Change the Weather History Date:

Saturday, February 16, 2013

  Actual Average (KOFK) Record (KOFK)
Temperature  
Mean Temperature 25 °F -  
Max Temperature 43 °F 34 °F 68 °F (1981)
Min Temperature 7 °F 14 °F -22 °F (1936)
Degree Days  
Heating Degree Days 40    
Moisture  
Dew Point 20 °F    
Average Humidity 77    
Maximum Humidity 89    
Minimum Humidity 55    
Precipitation  
Precipitation 0.00 in - - ()
Sea Level Pressure  
Sea Level Pressure 30.06 in    
Wind  
Wind Speed 2 mph (South)    
Max Wind Speed 13 mph    
Max Gust Speed 16 mph    
Visibility 10 miles    
Events Snow    
Averages and records for this station are not official NWS values.
T = Trace of Precipitation, MM = Missing Value Source: NWS Daily Summary

Daily Weather History Graph

Daily Weather History Graph

Search for Another Location

Airport or City:

Trip Planner

Search our weather history database for the weather conditions in past years. The results will help you decide how hot, cold, wet, or windy it might be!

Date:

Astronomy

Feb. 16, 2013 Rise Set
Actual Time 7:25 AM CST 6:07 PM CST
Civil Twilight 6:57 AM CST 6:35 PM CST
Nautical Twilight 6:25 AM CST 7:08 PM CST
Astronomical Twilight 5:52 AM CST 7:40 PM CST
Moon 10:33 AM CST (2/16) 12:14 AM CST (2/16)
Length of Visible Light 11h 38m
Length of Day
10h 41m
Waxing Crescent, 39% of the Moon is Illuminated
Feb 16
Waxing Crescent
Feb 17
First Quarter
Feb 25
Full
Mar 4
Last Quarter
Mar 11
New

Hourly Weather History & Observations

Time (CST) Temp. Windchill Dew Point Humidity Pressure Visibility Wind Dir Wind Speed Gust Speed Precip Events Conditions
12:15 AM 9.1 °F - 5.9 °F 87% 30.30 in 10.0 mi Calm Calm - N/A   Clear
12:35 AM 7.9 °F - 4.1 °F 85% 30.30 in 10.0 mi Calm Calm - N/A   Clear
12:55 AM 8.4 °F - 4.8 °F 85% 30.29 in 10.0 mi Calm Calm - N/A   Clear
1:15 AM 10.4 °F - 7.2 °F 87% 30.29 in 10.0 mi Calm Calm - N/A   Clear
1:35 AM 11.1 °F - 7.7 °F 86% 30.27 in 10.0 mi Calm Calm - N/A   Clear
1:55 AM 12.4 °F - 8.8 °F 85% 30.27 in 10.0 mi Calm Calm - N/A   Clear
2:15 AM 12.7 °F - 9.3 °F 86% 30.27 in 10.0 mi Calm Calm - N/A   Clear
2:35 AM 13.1 °F - 9.5 °F 86% 30.25 in 10.0 mi Calm Calm - N/A   Clear
2:55 AM 13.8 °F - 10.2 °F 86% 30.25 in 10.0 mi Calm Calm - N/A   Clear
3:15 AM 14.4 °F - 10.4 °F 84% 30.24 in 10.0 mi Calm Calm - N/A   Mostly Cloudy
3:35 AM 15.1 °F - 10.9 °F 84% 30.23 in 10.0 mi Calm Calm - N/A   Scattered Clouds
3:55 AM 14.0 °F - 10.2 °F 85% 30.21 in 10.0 mi Calm Calm - N/A   Mostly Cloudy
4:15 AM 15.6 °F 10.0 °F 11.7 °F 84% 30.20 in 10.0 mi SE 3.5 mph - N/A   Mostly Cloudy
4:35 AM 14.9 °F - 11.3 °F 86% 30.19 in 10.0 mi Calm Calm - N/A   Overcast
5:15 AM 18.3 °F 13.1 °F 14.0 °F 83% 30.18 in 10.0 mi SE 3.5 mph - N/A   Overcast
5:35 AM 19.2 °F 12.5 °F 14.5 °F 82% 30.17 in 10.0 mi SSW 4.6 mph - N/A   Overcast
5:55 AM 19.6 °F 11.7 °F 15.3 °F 83% 30.16 in 10.0 mi South 5.8 mph - N/A   Overcast
6:15 AM 19.9 °F 13.4 °F 15.4 °F 83% 30.15 in 10.0 mi South 4.6 mph - N/A   Overcast
6:35 AM 20.7 °F 15.8 °F 15.6 °F 81% 30.14 in 10.0 mi South 3.5 mph - N/A   Overcast
6:55 AM 20.8 °F 14.4 °F 16.0 °F 81% 30.13 in 10.0 mi SE 4.6 mph - N/A   Overcast
7:15 AM 21.0 °F 16.2 °F 16.2 °F 81% 30.12 in 10.0 mi SSE 3.5 mph - N/A   Overcast
7:35 AM 21.9 °F 14.5 °F 16.5 °F 80% 30.12 in 7.0 mi South 5.8 mph - N/A   Overcast
7:55 AM 22.5 °F 13.2 °F 18.0 °F 83% 30.11 in 4.0 mi South 8.1 mph - N/A Snow Light Snow
8:15 AM 23.0 °F 13.9 °F 19.0 °F 85% 30.10 in 5.0 mi South 8.1 mph - N/A Snow Light Snow
8:35 AM 23.9 °F 16.8 °F 20.1 °F 85% 30.10 in 5.0 mi South 5.8 mph - N/A Snow Light Snow
8:55 AM 24.3 °F 13.9 °F 20.5 °F 85% 30.08 in 5.0 mi South 10.4 mph - N/A Snow Light Snow
9:15 AM 24.8 °F 14.0 °F 21.0 °F 86% 30.08 in 5.0 mi SSW 11.5 mph 16.1 mph N/A Snow Light Snow
9:35 AM 25.3 °F 14.1 °F 21.6 °F 86% 30.07 in 4.0 mi SSW 12.7 mph - N/A Snow Light Snow
12:15 PM 32.0 °F 22.5 °F 24.4 °F 74% 30.02 in 10.0 mi SSW 12.7 mph - N/A   Overcast
12:35 PM 32.7 °F 25.0 °F 24.8 °F 73% 30.01 in 10.0 mi SSW 9.2 mph - N/A   Overcast
12:55 PM 34.7 °F 28.1 °F 25.5 °F 69% 30.00 in 10.0 mi SSW 8.1 mph - N/A   Overcast
1:15 PM 36.1 °F 29.9 °F 25.5 °F 65% 29.99 in 10.0 mi SSW 8.1 mph - N/A   Overcast
1:35 PM 37.6 °F 31.0 °F 26.4 °F 64% 29.98 in 10.0 mi SW 9.2 mph - N/A   Overcast
1:55 PM 38.3 °F 33.2 °F 26.4 °F 62% 29.98 in 10.0 mi WSW 6.9 mph - N/A   Overcast
2:15 PM 40.1 °F 36.1 °F 27.1 °F 60% 29.97 in 10.0 mi West 5.8 mph - N/A   Overcast
2:35 PM 39.7 °F 36.5 °F 27.1 °F 61% 29.97 in 10.0 mi West 4.6 mph - N/A   Overcast
2:55 PM 40.5 °F 37.3 °F 27.5 °F 60% 29.96 in 10.0 mi West 4.6 mph - N/A   Overcast
3:15 PM 41.2 °F 39.2 °F 27.9 °F 59% 29.96 in 10.0 mi WNW 3.5 mph - N/A   Overcast
3:35 PM 43.3 °F - 28.6 °F 56% 29.96 in 10.0 mi Calm Calm - N/A   Overcast
3:55 PM 43.3 °F - 28.8 °F 56% 29.95 in 10.0 mi Calm Calm - N/A   Mostly Cloudy
4:15 PM 43.7 °F - 28.6 °F 55% 29.95 in 10.0 mi Calm Calm - N/A   Scattered Clouds
4:35 PM 43.7 °F - 28.8 °F 56% 29.95 in 10.0 mi Calm Calm - N/A   Scattered Clouds
4:55 PM 43.7 °F - 28.8 °F 56% 29.95 in 10.0 mi Calm Calm - N/A   Scattered Clouds
5:15 PM 43.3 °F - 28.8 °F 56% 29.95 in 10.0 mi Calm Calm - N/A   Scattered Clouds
5:35 PM 42.1 °F 39.2 °F 28.2 °F 58% 29.95 in 10.0 mi ENE 4.6 mph - N/A   Clear
5:55 PM 39.7 °F 35.6 °F 27.5 °F 62% 29.96 in 10.0 mi ENE 5.8 mph - N/A   Scattered Clouds
6:15 PM 35.8 °F 30.9 °F 26.2 °F 68% 29.96 in 10.0 mi East 5.8 mph - N/A   Scattered Clouds
6:35 PM 34.3 °F 29.2 °F 25.9 °F 71% 29.96 in 10.0 mi SE 5.8 mph - N/A   Clear
6:55 PM 32.2 °F - 24.8 °F 74% 29.96 in 10.0 mi Calm Calm - N/A   Scattered Clouds
7:15 PM 31.8 °F - 24.8 °F 75% 29.96 in 10.0 mi Calm Calm - N/A   Scattered Clouds
7:35 PM 31.5 °F 28.1 °F 24.6 °F 76% 29.97 in 10.0 mi SE 3.5 mph - N/A   Clear
7:55 PM 29.5 °F - 23.7 °F 79% 29.96 in 10.0 mi Calm Calm - N/A   Clear
8:15 PM 29.1 °F - 23.7 °F 80% 29.96 in 10.0 mi Calm Calm - N/A   Clear
8:35 PM 31.1 °F - 24.8 °F 77% 29.96 in 10.0 mi Calm Calm - N/A   Clear
8:55 PM 29.1 °F - 24.3 °F 82% 29.96 in 10.0 mi Calm Calm - N/A   Clear
9:15 PM 29.1 °F - 23.7 °F 80% 29.96 in 10.0 mi Calm Calm - N/A   Clear
9:35 PM 28.8 °F - 24.1 °F 83% 29.96 in 10.0 mi Calm Calm - N/A   Clear
9:55 PM 28.9 °F - 24.3 °F 83% 29.96 in 10.0 mi Calm Calm - N/A   Clear
10:15 PM 27.3 °F - 21.9 °F 80% 29.96 in 10.0 mi Calm Calm - N/A   Clear
10:35 PM 25.7 °F - 22.3 °F 87% 29.96 in 10.0 mi Calm Calm - N/A   Scattered Clouds
10:55 PM 26.1 °F - 22.6 °F 87% 29.96 in 10.0 mi Calm Calm - N/A   Clear
11:15 PM 25.9 °F - 22.5 °F 87% 29.95 in 10.0 mi Calm Calm - N/A   Clear
11:35 PM 25.3 °F - 20.5 °F 82% 29.95 in 10.0 mi Calm Calm - N/A   Clear
11:55 PM 23.0 °F - 20.1 °F 89% 29.95 in 10.0 mi Calm Calm - N/A   Clear